| time (UTC) | temp C | wind direction | speed KPH | gust KPH | rain 1hr cm | rain 24hr cm | rain mn cm | humidity % | barometer mb |
| 20260507150101 | 12 | 137 | 37.0 | 43.5 | 0.00 | 0.00 | 0.00 | 65 | 1024.7 |
| 20260507145601 | 12 | 217 | 27.4 | 33.8 | 0.00 | 0.00 | 0.00 | 65 | 1024.7 |
| 20260507145101 | 12 | 158 | 27.4 | 38.6 | 0.00 | 0.00 | 0.00 | 67 | 1024.9 |
| 20260507144601 | 12 | 158 | 19.3 | 22.5 | 0.00 | 0.00 | 0.00 | 67 | 1024.8 |
| 20260507144101 | 12 | 159 | 24.1 | 25.7 | 0.00 | 0.00 | 0.00 | 66 | 1024.9 |
| 20260507143601 | 12 | 136 | 30.6 | 38.6 | 0.00 | 0.00 | 0.00 | 67 | 1024.9 |
| 20260507143100 | 12 | 128 | 17.7 | 30.6 | 0.00 | 0.00 | 0.00 | 66 | 1024.8 |
| 20260507142600 | 12 | 160 | 27.4 | 33.8 | 0.00 | 0.00 | 0.00 | 68 | 1025.0 |
| 20260507142100 | 11 | 141 | 16.1 | 22.5 | 0.00 | 0.00 | 0.00 | 70 | 1024.9 |
| 20260507141600 | 11 | 160 | 20.9 | 25.7 | 0.00 | 0.00 | 0.00 | 73 | 1024.9 |
| 20260507141100 | 10 | 127 | 25.7 | 33.8 | 0.00 | 0.00 | 0.00 | 75 | 1024.8 |
| 20260507140600 | 10 | 156 | 16.1 | 22.5 | 0.00 | 0.00 | 0.00 | 74 | 1024.7 |
| 20260507140100 | 10 | 147 | 37.0 | 43.5 | 0.00 | 0.00 | 0.00 | 73 | 1024.9 |
| 20260507135600 | 10 | 126 | 37.0 | 46.7 | 0.00 | 0.00 | 0.00 | 72 | 1024.9 |
| 20260507135100 | 10 | 143 | 12.9 | 17.7 | 0.00 | 0.00 | 0.00 | 78 | 1024.7 |
| 20260507134600 | 10 | 103 | 17.7 | 22.5 | 0.00 | 0.00 | 0.00 | 78 | 1025.0 |
| 20260507134059 | 10 | 142 | 19.3 | 25.7 | 0.00 | 0.00 | 0.00 | 79 | 1024.9 |
| 20260507133600 | 10 | 144 | 12.9 | 22.5 | 0.00 | 0.00 | 0.00 | 79 | 1024.7 |
| 20260507133100 | 10 | 139 | 17.7 | 22.5 | 0.00 | 0.00 | 0.00 | 81 | 1024.6 |
| 20260507132559 | 9 | 86 | 24.1 | 30.6 | 0.00 | 0.00 | 0.00 | 78 | 1024.7 |
| 20260507132059 | 9 | 160 | 12.9 | 22.5 | 0.00 | 0.00 | 0.00 | 78 | 1024.7 |
| 20260507131600 | 10 | 105 | 14.5 | 17.7 | 0.00 | 0.00 | 0.00 | 78 | 1024.8 |
| 20260507131059 | 10 | 146 | 30.6 | 43.5 | 0.00 | 0.00 | 0.00 | 76 | 1024.7 |
| 20260507130559 | 9 | 146 | 17.7 | 25.7 | 0.00 | 0.00 | 0.00 | 77 | 1024.4 |
| 20260507130059 | 9 | 127 | 43.5 | 51.5 | 0.00 | 0.00 | 0.00 | 76 | 1024.5 |
| 20260507125559 | 8 | 150 | 14.5 | 17.7 | 0.00 | 0.00 | 0.00 | 80 | 1024.5 |
| 20260507125059 | 8 | 168 | 30.6 | 38.6 | 0.00 | 0.00 | 0.00 | 79 | 1024.4 |
| 20260507124559 | 8 | 156 | 30.6 | 38.6 | 0.00 | 0.00 | 0.00 | 79 | 1024.4 |
| 20260507124058 | 8 | 144 | 17.7 | 25.7 | 0.00 | 0.00 | 0.00 | 81 | 1024.5 |
| 20260507123558 | 8 | 114 | 24.1 | 30.6 | 0.00 | 0.00 | 0.00 | 81 | 1024.6 |
| 20260507123058 | 7 | 126 | 9.7 | 12.9 | 0.00 | 0.00 | 0.00 | 82 | 1024.4 |
| 20260507122558 | 7 | 166 | 33.8 | 43.5 | 0.00 | 0.00 | 0.00 | 82 | 1024.4 |
| 20260507122058 | 7 | 144 | 16.1 | 22.5 | 0.00 | 0.00 | 0.00 | 83 | 1024.3 |
| 20260507121558 | 7 | 146 | 14.5 | 17.7 | 0.00 | 0.00 | 0.00 | 83 | 1024.4 |
| 20260507121058 | 7 | 141 | 1.6 | 3.2 | 0.00 | 0.00 | 0.00 | 85 | 1024.3 |
| 20260507120557 | 7 | 215 | 17.7 | 22.5 | 0.00 | 0.00 | 0.00 | 87 | 1024.1 |
| 20260507120058 | 6 | 148 | 8.0 | 9.7 | 0.00 | 0.00 | 0.00 | 88 | 1023.9 |
| 20260507115557 | 6 | 130 | 9.7 | 12.9 | 0.00 | 0.00 | 0.00 | 88 | 1023.9 |
| 20260507115057 | 6 | 144 | 6.4 | 12.9 | 0.00 | 0.00 | 0.00 | 89 | 1023.7 |
| 20260507114557 | 6 | 143 | 3.2 | 9.7 | 0.00 | 0.00 | 0.00 | 90 | 1023.9 |
| 20260507114057 | 6 | 157 | 11.3 | 22.5 | 0.00 | 0.00 | 0.00 | 90 | 1023.9 |
| 20260507113557 | 6 | 159 | 16.1 | 22.5 | 0.00 | 0.00 | 0.00 | 89 | 1023.8 |
| 20260507113057 | 6 | 122 | 16.1 | 22.5 | 0.00 | 0.00 | 0.00 | 89 | 1023.7 |
| 20260507112557 | 6 | 158 | 20.9 | 30.6 | 0.00 | 0.00 | 0.00 | 90 | 1023.7 |
| 20260507112057 | 6 | 188 | 11.3 | 12.9 | 0.00 | 0.00 | 0.00 | 90 | 1023.8 |
| 20260507111557 | 6 | 158 | 9.7 | 12.9 | 0.00 | 0.00 | 0.00 | 91 | 1023.9 |
| 20260507111057 | 6 | 147 | 3.2 | 9.7 | 0.00 | 0.00 | 0.00 | 91 | 1023.7 |
| 20260507110556 | 6 | 171 | 11.3 | 17.7 | 0.00 | 0.00 | 0.00 | 91 | 1023.5 |
| 20260507110056 | 6 | 115 | 11.3 | 12.9 | 0.00 | 0.00 | 0.00 | 91 | 1023.4 |
| 20260507105556 | 6 | 173 | 17.7 | 25.7 | 0.00 | 0.00 | 0.00 | 92 | 1023.4 |
| 20260507105056 | 6 | 130 | 16.1 | 22.5 | 0.00 | 0.00 | 0.00 | 92 | 1023.2 |
| 20260507104556 | 6 | 160 | 8.0 | 12.9 | 0.00 | 0.00 | 0.00 | 93 | 1023.4 |
| 20260507104056 | 6 | 165 | 3.2 | 9.7 | 0.00 | 0.00 | 0.00 | 93 | 1023.3 |
| 20260507103556 | 6 | 152 | 9.7 | 12.9 | 0.00 | 0.00 | 0.00 | 93 | 1023.4 |
| 20260507103056 | 6 | 165 | 20.9 | 25.7 | 0.00 | 0.00 | 0.00 | 93 | 1023.3 |
| 20260507102555 | 6 | 150 | 14.5 | 22.5 | 0.00 | 0.00 | 0.00 | 93 | 1023.3 |
| 20260507102056 | 6 | 151 | 6.4 | 9.7 | 0.00 | 0.00 | 0.00 | 93 | 1023.4 |
| 20260507101556 | 6 | 93 | 9.7 | 17.7 | 0.00 | 0.00 | 0.00 | 93 | 1023.3 |
| 20260507101055 | 6 | 160 | 6.4 | 12.9 | 0.00 | 0.00 | 0.00 | 93 | 1023.3 |
| 20260507100555 | 6 | 148 | 1.6 | 3.2 | 0.00 | 0.00 | 0.00 | 93 | 1023.1 |
| 20260507100055 | 6 | 152 | 3.2 | 3.2 | 0.00 | 0.00 | 0.00 | 93 | 1023.3 |
| 20260507095555 | 6 | 126 | 9.7 | 17.7 | 0.00 | 0.00 | 0.00 | 92 | 1023.1 |
| 20260507095055 | 6 | 140 | 3.2 | 3.2 | 0.00 | 0.00 | 0.00 | 92 | 1023.2 |
| 20260507094555 | 6 | 142 | 11.3 | 12.9 | 0.00 | 0.00 | 0.00 | 92 | 1023.1 |
| 20260507094055 | 6 | 161 | 16.1 | 22.5 | 0.00 | 0.00 | 0.00 | 92 | 1022.8 |
| 20260507093554 | 6 | 153 | 9.7 | 17.7 | 0.00 | 0.00 | 0.00 | 92 | 1022.9 |
| 20260507093054 | 6 | 171 | 24.1 | 30.6 | 0.00 | 0.00 | 0.00 | 92 | 1022.9 |
| 20260507092554 | 7 | 189 | 9.7 | 12.9 | 0.00 | 0.00 | 0.00 | 92 | 1022.8 |
| 20260507092054 | 7 | 147 | 6.4 | 9.7 | 0.00 | 0.00 | 0.00 | 91 | 1022.9 |
| 20260507091554 | 7 | 200 | 9.7 | 12.9 | 0.00 | 0.00 | 0.00 | 91 | 1022.6 |
| 20260507091054 | 7 | 173 | 3.2 | 9.7 | 0.00 | 0.00 | 0.00 | 91 | 1022.5 |
| 20260507090554 | 7 | 163 | 6.4 | 12.9 | 0.00 | 0.00 | 0.00 | 90 | 1022.7 |
| 20260507090054 | 7 | 152 | 4.8 | 9.7 | 0.00 | 0.00 | 0.00 | 90 | 1022.5 |
| 20260507085554 | 7 | 222 | 24.1 | 30.6 | 0.00 | 0.00 | 0.00 | 90 | 1022.2 |
| 20260507085054 | 7 | 171 | 9.7 | 17.7 | 0.00 | 0.00 | 0.00 | 90 | 1022.5 |
| 20260507084553 | 7 | 212 | 9.7 | 12.9 | 0.00 | 0.00 | 0.00 | 90 | 1022.3 |
| 20260507084054 | 7 | 195 | 6.4 | 9.7 | 0.00 | 0.00 | 0.00 | 90 | 1022.2 |
| 20260507083553 | 7 | 210 | 6.4 | 12.9 | 0.00 | 0.00 | 0.00 | 90 | 1022.2 |
| 20260507083053 | 7 | 193 | 22.5 | 30.6 | 0.00 | 0.00 | 0.00 | 90 | 1022.1 |
| 20260507082553 | 7 | 180 | 9.7 | 17.7 | 0.00 | 0.00 | 0.00 | 91 | 1022.2 |
| 20260507082053 | 7 | 175 | 9.7 | 17.7 | 0.00 | 0.00 | 0.00 | 91 | 1022.1 |
| 20260507081553 | 7 | 205 | 12.9 | 17.7 | 0.00 | 0.00 | 0.00 | 91 | 1021.9 |
| 20260507081053 | 7 | 225 | 17.7 | 22.5 | 0.00 | 0.00 | 0.00 | 91 | 1022.3 |
| 20260507080553 | 7 | 159 | 6.4 | 9.7 | 0.00 | 0.00 | 0.00 | 91 | 1022.3 |
| 20260507080053 | 7 | 168 | 4.8 | 9.7 | 0.00 | 0.00 | 0.00 | 91 | 1022.2 |
| 20260507075553 | 7 | 157 | 9.7 | 12.9 | 0.00 | 0.00 | 0.00 | 91 | 1022.1 |
| 20260507075053 | 7 | 123 | 30.6 | 43.5 | 0.00 | 0.00 | 0.00 | 91 | 1022.1 |
| 20260507074553 | 7 | 200 | 6.4 | 12.9 | 0.00 | 0.00 | 0.00 | 91 | 1022.1 |
| 20260507074052 | 7 | 146 | 6.4 | 9.7 | 0.00 | 0.00 | 0.00 | 91 | 1022.1 |
| 20260507073552 | 7 | 160 | 8.0 | 12.9 | 0.00 | 0.00 | 0.00 | 91 | 1022.2 |
| 20260507073052 | 7 | 139 | 11.3 | 12.9 | 0.00 | 0.00 | 0.00 | 92 | 1022.1 |
| 20260507072552 | 7 | 178 | 14.5 | 17.7 | 0.00 | 0.00 | 0.00 | 92 | 1022.0 |
| 20260507072052 | 6 | 147 | 1.6 | 3.2 | 0.00 | 0.00 | 0.00 | 93 | 1022.1 |
| 20260507071552 | 6 | 201 | 3.2 | 9.7 | 0.00 | 0.00 | 0.00 | 93 | 1022.3 |
| 20260507071052 | 6 | 171 | 6.4 | 12.9 | 0.00 | 0.00 | 0.00 | 93 | 1022.4 |
| 20260507070552 | 6 | 153 | 3.2 | 3.2 | 0.00 | 0.00 | 0.00 | 93 | 1022.2 |
| 20260507070051 | 6 | 146 | 6.4 | 9.7 | 0.00 | 0.00 | 0.00 | 93 | 1022.2 |
| 20260507065051 | 6 | 151 | 8.0 | 12.9 | 0.00 | 0.00 | 0.00 | 93 | 1022.1 |
| 20260507064551 | 6 | 154 | 3.2 | 9.7 | 0.00 | 0.00 | 0.00 | 93 | 1021.9 |
| 20260507064051 | 6 | 146 | 4.8 | 9.7 | 0.00 | 0.00 | 0.00 | 92 | 1022.1 |
| 20260507063551 | 7 | 155 | 0.0 | 0.0 | 0.00 | 0.00 | 0.00 | 91 | 1022.1 |
| 20260507063051 | 7 | 124 | 9.7 | 12.9 | 0.00 | 0.00 | 0.00 | 90 | 1022.1 |
| 20260507062551 | 7 | 233 | 9.7 | 12.9 | 0.00 | 0.00 | 0.00 | 89 | 1022.1 |
| 20260507062051 | 7 | 190 | 20.9 | 30.6 | 0.00 | 0.00 | 0.00 | 89 | 1021.9 |
| 20260507061551 | 7 | 215 | 29.0 | 43.5 | 0.00 | 0.00 | 0.00 | 90 | 1022.0 |
| 20260507061051 | 7 | 271 | 3.2 | 9.7 | 0.00 | 0.00 | 0.00 | 90 | 1021.9 |
| 20260507060551 | 7 | 259 | 19.3 | 25.7 | 0.00 | 0.00 | 0.00 | 91 | 1021.9 |
| 20260507060050 | 7 | 198 | 11.3 | 22.5 | 0.00 | 0.00 | 0.00 | 92 | 1022.0 |
| 20260507055550 | 7 | 230 | 20.9 | 25.7 | 0.00 | 0.00 | 0.00 | 92 | 1022.0 |
| 20260507055050 | 7 | 272 | 11.3 | 22.5 | 0.00 | 0.00 | 0.00 | 92 | 1022.0 |
| 20260507054550 | 7 | 241 | 8.0 | 17.7 | 0.00 | 0.00 | 0.00 | 93 | 1021.8 |
| 20260507054050 | 7 | 282 | 12.9 | 22.5 | 0.00 | 0.00 | 0.00 | 93 | 1021.8 |
| 20260507053550 | 7 | 219 | 11.3 | 17.7 | 0.00 | 0.00 | 0.00 | 93 | 1021.8 |
| 20260507053050 | 7 | 141 | 14.5 | 22.5 | 0.00 | 0.00 | 0.00 | 93 | 1021.9 |
| 20260507052550 | 7 | 217 | 8.0 | 12.9 | 0.00 | 0.00 | 0.00 | 93 | 1021.9 |
| 20260507052050 | 7 | 193 | 9.7 | 17.7 | 0.00 | 0.00 | 0.00 | 93 | 1022.0 |
| 20260507051549 | 7 | 144 | 6.4 | 17.7 | 0.00 | 0.00 | 0.00 | 93 | 1022.0 |
| 20260507051049 | 7 | 181 | 6.4 | 9.7 | 0.00 | 0.00 | 0.00 | 92 | 1022.0 |
| 20260507050549 | 7 | 199 | 20.9 | 22.5 | 0.00 | 0.00 | 0.00 | 92 | 1021.8 |
| 20260507050049 | 7 | 155 | 24.1 | 38.6 | 0.00 | 0.00 | 0.00 | 91 | 1021.9 |
| 20260507045549 | 8 | 166 | 9.7 | 17.7 | 0.00 | 0.00 | 0.00 | 91 | 1021.7 |
| 20260507045049 | 8 | 226 | 27.4 | 38.6 | 0.00 | 0.00 | 0.00 | 92 | 1021.8 |
| 20260507044549 | 8 | 180 | 17.7 | 30.6 | 0.00 | 0.00 | 0.00 | 92 | 1021.8 |
| 20260507044049 | 8 | 81 | 17.7 | 30.6 | 0.00 | 0.00 | 0.00 | 92 | 1021.8 |
| 20260507043549 | 8 | 144 | 4.8 | 12.9 | 0.00 | 0.00 | 0.00 | 92 | 1021.7 |
| 20260507043049 | 8 | 144 | 37.0 | 46.7 | 0.00 | 0.00 | 0.00 | 91 | 1021.6 |
| 20260507042549 | 8 | 190 | 29.0 | 33.8 | 0.00 | 0.00 | 0.00 | 91 | 1021.7 |
| 20260507042048 | 8 | 289 | 17.7 | 25.7 | 0.00 | 0.00 | 0.00 | 91 | 1021.6 |
| 20260507041548 | 8 | 225 | 27.4 | 46.7 | 0.00 | 0.00 | 0.00 | 92 | 1021.7 |
| 20260507041048 | 8 | 39 | 30.6 | 43.5 | 0.00 | 0.00 | 0.00 | 92 | 1021.8 |
| 20260507040548 | 8 | 151 | 3.2 | 3.2 | 0.00 | 0.00 | 0.00 | 92 | 1021.8 |
| 20260507040048 | 8 | 228 | 27.4 | 43.5 | 0.00 | 0.00 | 0.00 | 92 | 1021.6 |
| 20260507035548 | 8 | 159 | 19.3 | 33.8 | 0.00 | 0.00 | 0.00 | 92 | 1021.6 |
| 20260507035048 | 8 | 220 | 20.9 | 33.8 | 0.00 | 0.00 | 0.00 | 92 | 1021.6 |
| 20260507034548 | 8 | 262 | 6.4 | 9.7 | 0.00 | 0.00 | 0.00 | 92 | 1021.5 |
| 20260507034047 | 7 | 135 | 29.0 | 64.4 | 0.00 | 0.00 | 0.00 | 92 | 1021.5 |
| 20260507033548 | 8 | 159 | 3.2 | 3.2 | 0.00 | 0.00 | 0.00 | 92 | 1021.4 |
| 20260507033047 | 8 | 144 | 3.2 | 3.2 | 0.00 | 0.00 | 0.00 | 92 | 1021.3 |
| 20260507032547 | 8 | 159 | 1.6 | 3.2 | 0.00 | 0.00 | 0.00 | 92 | 1021.4 |
| 20260507032047 | 8 | 167 | 9.7 | 17.7 | 0.00 | 0.00 | 0.00 | 92 | 1021.4 |
| 20260507031547 | 8 | 154 | 24.1 | 33.8 | 0.00 | 0.00 | 0.00 | 92 | 1021.4 |
| 20260507031047 | 8 | 283 | 14.5 | 22.5 | 0.00 | 0.00 | 0.00 | 92 | 1021.4 |
| 20260507030547 | 8 | 180 | 3.2 | 9.7 | 0.00 | 0.00 | 0.00 | 91 | 1021.5 |
| 20260507030047 | 8 | 163 | 6.4 | 12.9 | 0.00 | 0.00 | 0.00 | 92 | 1021.3 |
| 20260507025547 | 8 | 315 | 3.2 | 9.7 | 0.00 | 0.00 | 0.00 | 92 | 1021.4 |
| 20260507025046 | 8 | 126 | 14.5 | 22.5 | 0.00 | 0.00 | 0.00 | 93 | 1021.3 |
| 20260507024547 | 8 | 315 | 17.7 | 22.5 | 0.00 | 0.00 | 0.00 | 93 | 1021.3 |
| 20260507024046 | 8 | 255 | 17.7 | 22.5 | 0.00 | 0.00 | 0.00 | 93 | 1021.3 |
| 20260507023546 | 8 | 213 | 22.5 | 30.6 | 0.00 | 0.00 | 0.00 | 93 | 1021.4 |
| 20260507023046 | 8 | 177 | 0.0 | 3.2 | 0.00 | 0.00 | 0.00 | 93 | 1021.4 |
| 20260507022546 | 8 | 161 | 9.7 | 12.9 | 0.00 | 0.00 | 0.00 | 93 | 1021.1 |
| 20260507022046 | 8 | 183 | 11.3 | 17.7 | 0.00 | 0.00 | 0.00 | 93 | 1021.0 |
| 20260507021546 | 8 | 153 | 27.4 | 33.8 | 0.00 | 0.00 | 0.00 | 93 | 1021.0 |
| 20260507021046 | 8 | 153 | 6.4 | 12.9 | 0.00 | 0.00 | 0.00 | 93 | 1021.1 |
| 20260507020546 | 8 | 193 | 8.0 | 17.7 | 0.00 | 0.00 | 0.00 | 93 | 1020.9 |
| 20260507020046 | 8 | 196 | 16.1 | 30.6 | 0.00 | 0.00 | 0.00 | 92 | 1021.0 |
| 20260507015546 | 8 | 195 | 6.4 | 12.9 | 0.00 | 0.00 | 0.00 | 92 | 1020.8 |
| 20260507015046 | 8 | 225 | 4.8 | 9.7 | 0.00 | 0.00 | 0.00 | 92 | 1020.9 |
| 20260507014545 | 8 | 157 | 4.8 | 9.7 | 0.00 | 0.00 | 0.00 | 92 | 1020.8 |
| 20260507014045 | 8 | 206 | 33.8 | 46.7 | 0.00 | 0.00 | 0.00 | 92 | 1020.6 |
| 20260507013545 | 8 | 150 | 3.2 | 9.7 | 0.00 | 0.00 | 0.00 | 92 | 1020.5 |
| 20260507013045 | 8 | 225 | 17.7 | 25.7 | 0.00 | 0.00 | 0.00 | 91 | 1020.6 |
| 20260507012545 | 8 | 207 | 9.7 | 12.9 | 0.00 | 0.00 | 0.00 | 92 | 1020.7 |
| 20260507012045 | 8 | 332 | 6.4 | 9.7 | 0.00 | 0.00 | 0.00 | 92 | 1020.8 |
| 20260507011545 | 8 | 200 | 4.8 | 9.7 | 0.00 | 0.00 | 0.00 | 92 | 1020.7 |
| 20260507011045 | 8 | 328 | 8.0 | 12.9 | 0.00 | 0.00 | 0.00 | 92 | 1021.0 |
| 20260507010545 | 9 | 244 | 4.8 | 9.7 | 0.00 | 0.00 | 0.00 | 93 | 1020.8 |
| 20260507010045 | 8 | 296 | 4.8 | 9.7 | 0.00 | 0.00 | 0.00 | 93 | 1020.9 |
| 20260507005544 | 8 | 183 | 11.3 | 17.7 | 0.00 | 0.00 | 0.00 | 93 | 1020.8 |
| 20260507005044 | 8 | 146 | 0.0 | 3.2 | 0.00 | 0.00 | 0.00 | 93 | 1020.9 |
| 20260507004544 | 8 | 151 | 0.0 | 3.2 | 0.00 | 0.00 | 0.00 | 93 | 1021.0 |
| 20260507004044 | 8 | 126 | 3.2 | 9.7 | 0.00 | 0.00 | 0.00 | 93 | 1020.8 |
| 20260507003544 | 8 | 138 | 22.5 | 30.6 | 0.00 | 0.00 | 0.00 | 93 | 1020.8 |
| 20260507003044 | 9 | 120 | 22.5 | 33.8 | 0.00 | 0.00 | 0.00 | 92 | 1020.5 |
| 20260507002544 | 9 | 167 | 3.2 | 3.2 | 0.00 | 0.00 | 0.00 | 92 | 1020.7 |
| 20260507002044 | 9 | 337 | 3.2 | 9.7 | 0.00 | 0.00 | 0.00 | 92 | 1020.8 |
| 20260507001543 | 9 | 201 | 9.7 | 12.9 | 0.00 | 0.00 | 0.00 | 92 | 1020.5 |
| 20260507001044 | 9 | 143 | 24.1 | 33.8 | 0.00 | 0.00 | 0.00 | 92 | 1020.6 |
| 20260507000543 | 9 | 178 | 9.7 | 17.7 | 0.00 | 0.00 | 0.00 | 92 | 1020.4 |
| 20260507000043 | 9 | 120 | 6.4 | 9.7 | 0.00 | 0.00 | 0.00 | 92 | 1020.7 |
| 20260506235543 | 9 | 256 | 9.7 | 12.9 | 0.00 | 0.00 | 0.00 | 92 | 1020.5 |
| 20260506235043 | 9 | 250 | 6.4 | 22.5 | 0.00 | 0.00 | 0.00 | 92 | 1020.5 |
| 20260506234543 | 9 | 307 | 3.2 | 3.2 | 0.00 | 0.00 | 0.00 | 92 | 1020.5 |
| 20260506234043 | 9 | 124 | 3.2 | 3.2 | 0.00 | 0.00 | 0.00 | 92 | 1020.3 |
| 20260506233543 | 9 | 204 | 12.9 | 25.7 | 0.00 | 0.00 | 0.00 | 93 | 1020.4 |
| 20260506233043 | 9 | 172 | 9.7 | 17.7 | 0.00 | 0.00 | 0.00 | 93 | 1020.3 |
| 20260506232542 | 9 | 146 | 3.2 | 3.2 | 0.00 | 0.00 | 0.00 | 93 | 1020.2 |
| 20260506232042 | 9 | 182 | 6.4 | 9.7 | 0.00 | 0.00 | 0.00 | 93 | 1020.2 |
| 20260506231542 | 9 | 180 | 4.8 | 9.7 | 0.00 | 0.00 | 0.00 | 93 | 1020.0 |
| 20260506231042 | 9 | 320 | 0.0 | 0.0 | 0.00 | 0.00 | 0.00 | 93 | 1020.0 |
| 20260506230542 | 9 | 152 | 0.0 | 0.0 | 0.00 | 0.00 | 0.00 | 93 | 1019.9 |
| 20260506230042 | 9 | 317 | 0.0 | 0.0 | 0.00 | 0.00 | 0.00 | 93 | 1019.9 |
| 20260506225542 | 9 | 320 | 0.0 | 0.0 | 0.00 | 0.00 | 0.00 | 93 | 1019.7 |
| 20260506225042 | 9 | 156 | 0.0 | 0.0 | 0.00 | 0.00 | 0.00 | 93 | 1019.7 |
| 20260506224542 | 9 | 310 | 8.0 | 12.9 | 0.00 | 0.00 | 0.00 | 93 | 1019.5 |
| 20260506224042 | 9 | 151 | 0.0 | 0.0 | 0.00 | 0.00 | 0.00 | 92 | 1019.4 |
| 20260506223541 | 9 | 262 | 0.0 | 0.0 | 0.00 | 0.00 | 0.00 | 92 | 1019.6 |
| 20260506223042 | 10 | 145 | 0.0 | 0.0 | 0.00 | 0.00 | 0.00 | 92 | 1019.5 |
| 20260506222542 | 10 | 150 | 12.9 | 17.7 | 0.00 | 0.00 | 0.00 | 92 | 1019.2 |
| 20260506222041 | 10 | 343 | 6.4 | 9.7 | 0.00 | 0.00 | 0.00 | 92 | 1019.3 |
| 20260506221541 | 10 | 157 | 6.4 | 17.7 | 0.00 | 0.00 | 0.00 | 91 | 1019.3 |
| 20260506221041 | 10 | 153 | 12.9 | 17.7 | 0.00 | 0.00 | 0.00 | 91 | 1019.4 |
| 20260506220541 | 10 | 144 | 14.5 | 17.7 | 0.00 | 0.00 | 0.00 | 90 | 1019.2 |
| 20260506220041 | 10 | 143 | 9.7 | 12.9 | 0.00 | 0.00 | 0.00 | 90 | 1019.3 |
| 20260506215541 | 10 | 154 | 8.0 | 9.7 | 0.00 | 0.00 | 0.00 | 90 | 1019.1 |
| 20260506215041 | 10 | 169 | 27.4 | 33.8 | 0.00 | 0.00 | 0.00 | 90 | 1019.2 |
| 20260506214541 | 10 | 284 | 16.1 | 22.5 | 0.00 | 0.00 | 0.00 | 91 | 1019.1 |
| 20260506214040 | 10 | 195 | 16.1 | 22.5 | 0.00 | 0.00 | 0.00 | 91 | 1019.0 |
| 20260506213541 | 10 | 240 | 24.1 | 30.6 | 0.00 | 0.00 | 0.00 | 91 | 1019.2 |
| 20260506213040 | 10 | 138 | 12.9 | 22.5 | 0.00 | 0.00 | 0.00 | 91 | 1019.0 |
| 20260506212540 | 10 | 225 | 24.1 | 38.6 | 0.00 | 0.00 | 0.00 | 92 | 1019.1 |
| 20260506212040 | 10 | 279 | 29.0 | 33.8 | 0.00 | 0.00 | 0.00 | 92 | 1018.8 |
| 20260506211540 | 10 | 285 | 11.3 | 17.7 | 0.00 | 0.00 | 0.00 | 92 | 1019.0 |
| 20260506211040 | 10 | 117 | 16.1 | 22.5 | 0.00 | 0.00 | 0.00 | 92 | 1019.0 |
| 20260506210540 | 10 | 257 | 9.7 | 12.9 | 0.00 | 0.00 | 0.00 | 92 | 1018.9 |
| 20260506210040 | 10 | 290 | 37.0 | 43.5 | 0.00 | 0.00 | 0.00 | 92 | 1018.9 |
| 20260506205539 | 10 | 334 | 17.7 | 25.7 | 0.00 | 0.00 | 0.00 | 92 | 1019.1 |
| 20260506205040 | 10 | 243 | 29.0 | 38.6 | 0.00 | 0.00 | 0.00 | 93 | 1019.0 |
| 20260506204539 | 10 | 162 | 14.5 | 22.5 | 0.00 | 0.00 | 0.00 | 93 | 1018.7 |
| 20260506204039 | 10 | 180 | 11.3 | 17.7 | 0.00 | 0.00 | 0.00 | 92 | 1018.8 |
| 20260506203540 | 11 | 192 | 11.3 | 17.7 | 0.00 | 0.00 | 0.00 | 92 | 1018.9 |
| 20260506203039 | 11 | 246 | 22.5 | 33.8 | 0.00 | 0.00 | 0.00 | 92 | 1018.5 |
| 20260506202539 | 11 | 63 | 4.8 | 9.7 | 0.00 | 0.00 | 0.00 | 92 | 1018.5 |
| 20260506202039 | 11 | 320 | 6.4 | 9.7 | 0.00 | 0.00 | 0.00 | 92 | 1018.6 |
| 20260506201539 | 11 | 268 | 20.9 | 33.8 | 0.00 | 0.00 | 0.00 | 92 | 1018.6 |
| 20260506201039 | 11 | 181 | 43.5 | 51.5 | 0.00 | 0.00 | 0.00 | 92 | 1018.7 |
| 20260506200538 | 11 | 300 | 11.3 | 17.7 | 0.00 | 0.00 | 0.00 | 93 | 1018.5 |
| 20260506200039 | 11 | 272 | 6.4 | 9.7 | 0.00 | 0.00 | 0.00 | 92 | 1018.7 |
| 20260506195538 | 11 | 273 | 16.1 | 17.7 | 0.00 | 0.00 | 0.00 | 92 | 1018.6 |
| 20260506195038 | 11 | 186 | 8.0 | 12.9 | 0.00 | 0.00 | 0.00 | 92 | 1018.7 |
| 20260506194538 | 11 | 232 | 8.0 | 17.7 | 0.00 | 0.00 | 0.00 | 92 | 1018.5 |
| 20260506194038 | 11 | 275 | 17.7 | 30.6 | 0.00 | 0.00 | 0.00 | 92 | 1018.6 |
| 20260506193538 | 11 | 186 | 12.9 | 22.5 | 0.00 | 0.00 | 0.00 | 92 | 1018.4 |
| 20260506193038 | 11 | 4 | 24.1 | 46.7 | 0.00 | 0.00 | 0.00 | 92 | 1018.4 |
| 20260506192538 | 11 | 250 | 29.0 | 38.6 | 0.00 | 0.00 | 0.00 | 92 | 1018.3 |
| 20260506192038 | 11 | 295 | 8.0 | 12.9 | 0.00 | 0.00 | 0.00 | 92 | 1018.3 |
| 20260506191537 | 11 | 188 | 25.7 | 51.5 | 0.00 | 0.00 | 0.00 | 92 | 1018.4 |
| 20260506191037 | 11 | 264 | 27.4 | 30.6 | 0.00 | 0.00 | 0.00 | 92 | 1018.1 |
| 20260506190537 | 11 | 225 | 37.0 | 59.5 | 0.00 | 0.00 | 0.00 | 92 | 1018.1 |
| 20260506190037 | 11 | 264 | 30.6 | 38.6 | 0.00 | 0.00 | 0.00 | 92 | 1017.9 |
| 20260506185537 | 11 | 216 | 22.5 | 25.7 | 0.00 | 0.00 | 0.00 | 92 | 1017.9 |
| 20260506185037 | 11 | 242 | 37.0 | 46.7 | 0.00 | 0.00 | 0.00 | 92 | 1017.9 |
| 20260506184537 | 11 | 239 | 25.7 | 38.6 | 0.00 | 0.00 | 0.00 | 93 | 1017.9 |
| 20260506184037 | 11 | 291 | 22.5 | 30.6 | 0.00 | 0.00 | 0.00 | 93 | 1017.8 |
| 20260506183537 | 11 | 220 | 17.7 | 25.7 | 0.00 | 0.00 | 0.00 | 93 | 1017.7 |
| 20260506183037 | 11 | 267 | 22.5 | 38.6 | 0.00 | 0.00 | 0.00 | 93 | 1017.3 |
| 20260506182536 | 12 | 192 | 24.1 | 46.7 | 0.00 | 0.00 | 0.00 | 93 | 1017.5 |
| 20260506182037 | 12 | 225 | 22.5 | 25.7 | 0.00 | 0.00 | 0.00 | 93 | 1017.2 |
| 20260506181536 | 12 | 244 | 17.7 | 25.7 | 0.00 | 0.00 | 0.00 | 93 | 1017.1 |
| 20260506181036 | 12 | 206 | 25.7 | 46.7 | 0.00 | 0.00 | 0.00 | 93 | 1017.1 |
| 20260506180536 | 12 | 278 | 25.7 | 38.6 | 0.00 | 0.00 | 0.00 | 93 | 1017.2 |
| 20260506180036 | 12 | 221 | 27.4 | 38.6 | 0.00 | 0.00 | 0.00 | 93 | 1017.4 |
| 20260506175536 | 12 | 294 | 9.7 | 17.7 | 0.00 | 0.00 | 0.00 | 94 | 1017.3 |
| 20260506175036 | 12 | 193 | 24.1 | 30.6 | 0.00 | 0.00 | 0.00 | 94 | 1017.0 |
| 20260506174536 | 12 | 250 | 22.5 | 30.6 | 0.00 | 0.00 | 0.00 | 93 | 1017.4 |
| 20260506174036 | 12 | 150 | 14.5 | 30.6 | 0.00 | 0.00 | 0.00 | 93 | 1017.2 |
| 20260506173536 | 12 | 251 | 37.0 | 46.7 | 0.00 | 0.00 | 0.00 | 94 | 1017.1 |
| 20260506173035 | 12 | 283 | 25.7 | 46.7 | 0.00 | 0.00 | 0.00 | 93 | 1017.0 |
| 20260506172535 | 12 | 275 | 32.2 | 64.4 | 0.00 | 0.00 | 0.00 | 94 | 1017.1 |
| 20260506172035 | 12 | 215 | 20.9 | 30.6 | 0.00 | 0.00 | 0.00 | 95 | 1015.6 |
| 20260506171535 | 12 | 215 | 20.9 | 30.6 | 0.00 | 0.00 | 0.00 | 95 | 1015.6 |
| 20260506171035 | 12 | 215 | 20.9 | 30.6 | 0.00 | 0.00 | 0.00 | 95 | 1015.6 |
| 20260506170535 | 12 | 215 | 20.9 | 30.6 | 0.00 | 0.00 | 0.00 | 95 | 1015.6 |
| 20260506170035 | 12 | 215 | 20.9 | 30.6 | 0.00 | 0.00 | 0.00 | 95 | 1015.6 |
| 20260506165535 | 12 | 215 | 20.9 | 30.6 | 0.00 | 0.00 | 0.00 | 95 | 1015.6 |
| 20260506165035 | 12 | 215 | 20.9 | 30.6 | 0.00 | 0.00 | 0.00 | 95 | 1015.6 |
| 20260506164535 | 12 | 215 | 20.9 | 30.6 | 0.00 | 0.00 | 0.00 | 95 | 1015.6 |
| 20260506164034 | 12 | 215 | 20.9 | 30.6 | 0.00 | 0.00 | 0.00 | 95 | 1015.6 |
| 20260506163535 | 12 | 215 | 20.9 | 30.6 | 0.00 | 0.00 | 0.00 | 95 | 1015.6 |
| 20260506163034 | 12 | 215 | 20.9 | 30.6 | 0.00 | 0.00 | 0.00 | 95 | 1015.6 |
| 20260506162534 | 12 | 215 | 20.9 | 30.6 | 0.00 | 0.00 | 0.00 | 95 | 1015.6 |
| 20260506162034 | 12 | 215 | 20.9 | 30.6 | 0.00 | 0.00 | 0.00 | 95 | 1015.6 |
| 20260506161534 | 12 | 215 | 20.9 | 30.6 | 0.00 | 0.00 | 0.00 | 95 | 1015.6 |
| 20260506161034 | 12 | 215 | 20.9 | 30.6 | 0.00 | 0.00 | 0.00 | 95 | 1015.6 |
| 20260506160534 | 12 | 215 | 20.9 | 30.6 | 0.00 | 0.00 | 0.00 | 95 | 1015.6 |
| 20260506160034 | 12 | 215 | 20.9 | 30.6 | 0.00 | 0.00 | 0.00 | 95 | 1015.6 |
| 20260506155534 | 12 | 215 | 20.9 | 30.6 | 0.00 | 0.00 | 0.00 | 95 | 1015.6 |
| 20260506155033 | 12 | 291 | 40.2 | 72.4 | 0.00 | 0.00 | 0.00 | 95 | 1015.7 |
| 20260506154533 | 12 | 287 | 19.3 | 25.7 | 0.00 | 0.00 | 0.00 | 95 | 1015.7 |
| 20260506154033 | 12 | 216 | 19.3 | 33.8 | 0.00 | 0.00 | 0.00 | 95 | 1015.8 |
| 20260506153533 | 12 | 241 | 14.5 | 17.7 | 0.00 | 0.00 | 0.00 | 95 | 1015.6 |
| 20260506153033 | 12 | 335 | 17.7 | 22.5 | 0.00 | 0.00 | 0.00 | 95 | 1015.6 |
| 20260506152533 | 12 | 291 | 11.3 | 22.5 | 0.00 | 0.00 | 0.00 | 95 | 1015.5 |
| 20260506152033 | 12 | 336 | 27.4 | 46.7 | 0.00 | 0.00 | 0.00 | 95 | 1015.3 |
| 20260506151533 | 12 | 341 | 30.6 | 51.5 | 0.00 | 0.00 | 0.00 | 95 | 1015.3 |
| 20260506151033 | 12 | 298 | 37.0 | 46.7 | 0.00 | 0.00 | 0.00 | 95 | 1015.2 |
| 20260506150533 | 12 | 327 | 24.1 | 43.5 | 0.00 | 0.00 | 0.00 | 95 | 1015.3 |